| time (UTC) | temp F | wind direction | speed MPH | gust MPH | rain 1hr in | rain 24hr in | rain mn in | humidity % | barometer mb |
| 20260503211530 | 81 | 274 | 6.0 | 6.0 | 0.00 | 0.00 | 0.00 | 31 | 1008.7 |
| 20260503211029 | 81 | 262 | 0.0 | 5.0 | 0.00 | 0.00 | 0.00 | 31 | 1008.8 |
| 20260503210529 | 81 | 267 | 0.0 | 8.0 | 0.00 | 0.00 | 0.00 | 30 | 1008.8 |
| 20260503210027 | 80 | 241 | 5.0 | 9.0 | 0.00 | 0.00 | 0.00 | 31 | 1008.9 |
| 20260503205526 | 80 | 262 | 0.0 | 10.0 | 0.00 | 0.00 | 0.00 | 31 | 1009.0 |
| 20260503205025 | 80 | 307 | 0.0 | 7.0 | 0.00 | 0.00 | 0.00 | 31 | 1009.0 |
| 20260503204524 | 80 | 261 | 5.0 | 7.0 | 0.00 | 0.00 | 0.00 | 32 | 1009.2 |
| 20260503204024 | 80 | 213 | 0.0 | 5.0 | 0.00 | 0.00 | 0.00 | 33 | 1009.2 |
| 20260503203523 | 80 | 306 | 0.0 | 5.0 | 0.00 | 0.00 | 0.00 | 34 | 1009.3 |
| 20260503203021 | 80 | 344 | 0.0 | 7.0 | 0.00 | 0.00 | 0.00 | 32 | 1009.3 |
| 20260503202520 | 80 | 270 | 2.0 | 9.0 | 0.00 | 0.00 | 0.00 | 34 | 1009.4 |
| 20260503202019 | 80 | 285 | 0.0 | 10.0 | 0.00 | 0.00 | 0.00 | 32 | 1009.6 |
| 20260503201518 | 80 | 281 | 3.0 | 9.0 | 0.00 | 0.00 | 0.00 | 32 | 1009.7 |
| 20260503201017 | 80 | 182 | 0.0 | 7.0 | 0.00 | 0.00 | 0.00 | 34 | 1009.7 |
| 20260503200516 | 80 | 236 | 7.0 | 12.0 | 0.00 | 0.00 | 0.00 | 40 | 1009.8 |
| 20260503200015 | 80 | 220 | 0.0 | 2.0 | 0.00 | 0.00 | 0.00 | 39 | 1009.8 |
| 20260503195514 | 79 | 255 | 0.0 | 4.0 | 0.00 | 0.00 | 0.00 | 39 | 1010.0 |
| 20260503195013 | 79 | 201 | 2.0 | 11.0 | 0.00 | 0.00 | 0.00 | 39 | 1010.0 |
| 20260503194513 | 79 | 282 | 0.0 | 5.0 | 0.00 | 0.00 | 0.00 | 38 | 1010.2 |
| 20260503194012 | 79 | 244 | 0.0 | 8.0 | 0.00 | 0.00 | 0.00 | 37 | 1010.1 |
| 20260503193510 | 78 | 191 | 0.0 | 3.0 | 0.00 | 0.00 | 0.00 | 37 | 1010.2 |
| 20260503193010 | 78 | 212 | 2.0 | 13.0 | 0.00 | 0.00 | 0.00 | 39 | 1010.3 |
| 20260503192509 | 78 | 306 | 2.0 | 11.0 | 0.00 | 0.00 | 0.00 | 37 | 1010.4 |
| 20260503192008 | 78 | 255 | 6.0 | 11.0 | 0.00 | 0.00 | 0.00 | 37 | 1010.5 |
| 20260503191507 | 78 | 243 | 0.0 | 7.0 | 0.00 | 0.00 | 0.00 | 39 | 1010.6 |
| 20260503191006 | 78 | 226 | 5.0 | 10.0 | 0.00 | 0.00 | 0.00 | 39 | 1010.6 |
| 20260503190504 | 77 | 196 | 5.0 | 7.0 | 0.00 | 0.00 | 0.00 | 37 | 1010.7 |
| 20260503190003 | 77 | 172 | 1.0 | 8.0 | 0.00 | 0.00 | 0.00 | 38 | 1010.7 |
| 20260503185503 | 77 | 160 | 0.0 | 1.0 | 0.00 | 0.00 | 0.00 | 41 | 1010.7 |
| 20260503185002 | 77 | 261 | 8.0 | 8.0 | 0.00 | 0.00 | 0.00 | 41 | 1010.8 |
| 20260503184500 | 77 | 229 | 0.0 | 7.0 | 0.00 | 0.00 | 0.00 | 39 | 1010.9 |
| 20260503184000 | 77 | 260 | 1.0 | 8.0 | 0.00 | 0.00 | 0.00 | 43 | 1010.9 |
| 20260503183459 | 76 | 243 | 1.0 | 11.0 | 0.00 | 0.00 | 0.00 | 42 | 1011.0 |
| 20260503182957 | 76 | 215 | 0.0 | 9.0 | 0.00 | 0.00 | 0.00 | 39 | 1011.1 |
| 20260503182457 | 76 | 212 | 8.0 | 9.0 | 0.00 | 0.00 | 0.00 | 40 | 1011.3 |
| 20260503181955 | 76 | 219 | 0.0 | 7.0 | 0.00 | 0.00 | 0.00 | 40 | 1011.2 |
| 20260503181455 | 76 | 247 | 5.0 | 13.0 | 0.00 | 0.00 | 0.00 | 40 | 1011.4 |
| 20260503180953 | 75 | 232 | 1.0 | 11.0 | 0.00 | 0.00 | 0.00 | 39 | 1011.4 |
| 20260503180452 | 75 | 222 | 6.0 | 8.0 | 0.00 | 0.00 | 0.00 | 39 | 1011.5 |
| 20260503175952 | 75 | 271 | 0.0 | 12.0 | 0.00 | 0.00 | 0.00 | 40 | 1011.5 |
| 20260503175450 | 74 | 220 | 5.0 | 16.0 | 0.00 | 0.00 | 0.00 | 43 | 1011.6 |
| 20260503174949 | 74 | 289 | 6.0 | 11.0 | 0.00 | 0.00 | 0.00 | 42 | 1011.6 |
| 20260503174448 | 74 | 185 | 5.0 | 6.0 | 0.00 | 0.00 | 0.00 | 43 | 1011.6 |
| 20260503173947 | 74 | 253 | 3.0 | 16.0 | 0.00 | 0.00 | 0.00 | 43 | 1011.7 |
| 20260503173446 | 73 | 257 | 1.0 | 17.0 | 0.00 | 0.00 | 0.00 | 43 | 1011.8 |
| 20260503172945 | 73 | 230 | 0.0 | 5.0 | 0.00 | 0.00 | 0.00 | 44 | 1011.8 |
| 20260503172445 | 72 | 236 | 1.0 | 8.0 | 0.00 | 0.00 | 0.00 | 44 | 1011.9 |
| 20260503171943 | 72 | 240 | 5.0 | 9.0 | 0.00 | 0.00 | 0.00 | 44 | 1011.9 |
| 20260503171440 | 72 | 209 | 8.0 | 10.0 | 0.00 | 0.00 | 0.00 | 43 | 1012.0 |
| 20260503170940 | 72 | 250 | 6.0 | 9.0 | 0.00 | 0.00 | 0.00 | 44 | 1012.1 |
| 20260503170438 | 72 | 257 | 3.0 | 11.0 | 0.00 | 0.00 | 0.00 | 44 | 1012.2 |
| 20260503150915 | 66 | 216 | 3.0 | 13.0 | 0.00 | 0.00 | 0.00 | 50 | 1012.8 |
| 20260503150415 | 65 | 275 | 7.0 | 11.0 | 0.00 | 0.00 | 0.00 | 52 | 1013.0 |
| 20260503131352 | 56 | 202 | 3.0 | 11.0 | 0.00 | 0.00 | 0.00 | 57 | 1014.1 |
| 20260503130851 | 56 | 149 | 4.0 | 12.0 | 0.00 | 0.00 | 0.00 | 57 | 1014.1 |
| 20260503130350 | 55 | 198 | 1.0 | 16.0 | 0.00 | 0.00 | 0.00 | 58 | 1014.0 |
| 20260503110827 | 52 | 232 | 7.0 | 15.0 | 0.00 | 0.00 | 0.00 | 53 | 1014.1 |
| 20260503110326 | 53 | 184 | 8.0 | 8.0 | 0.00 | 0.00 | 0.00 | 55 | 1014.1 |
| 20260503090302 | 53 | 203 | 3.0 | 10.0 | 0.00 | 0.00 | 0.00 | 57 | 1015.3 |
| 20260503081252 | 52 | 227 | 1.0 | 10.0 | 0.00 | 0.00 | 0.00 | 56 | 1015.4 |
| 20260503080751 | 52 | 246 | 5.0 | 10.0 | 0.00 | 0.00 | 0.00 | 56 | 1015.5 |
| 20260503080250 | 52 | 201 | 5.0 | 10.0 | 0.00 | 0.00 | 0.00 | 57 | 1015.5 |
| 20260503072743 | 53 | 205 | 2.0 | 5.0 | 0.00 | 0.00 | 0.00 | 55 | 1015.8 |
| 20260503072242 | 53 | 172 | 2.0 | 6.0 | 0.00 | 0.00 | 0.00 | 55 | 1015.8 |
| 20260503071741 | 53 | 175 | 4.0 | 10.0 | 0.00 | 0.00 | 0.00 | 54 | 1015.9 |
| 20260503071240 | 53 | 142 | 2.0 | 10.0 | 0.00 | 0.00 | 0.00 | 55 | 1015.8 |
| 20260503070739 | 53 | 184 | 5.0 | 8.0 | 0.00 | 0.00 | 0.00 | 55 | 1015.9 |
| 20260503070238 | 53 | 215 | 1.0 | 8.0 | 0.00 | 0.00 | 0.00 | 55 | 1016.0 |
| 20260503060226 | 53 | 255 | 0.0 | 0.0 | 0.00 | 0.00 | 0.00 | 56 | 1016.5 |
| 20260503054723 | 52 | 255 | 0.0 | 0.0 | 0.00 | 0.00 | 0.00 | 57 | 1016.6 |
| 20260503054222 | 52 | 255 | 0.0 | 0.0 | 0.00 | 0.00 | 0.00 | 56 | 1016.7 |
| 20260503053721 | 52 | 255 | 0.0 | 0.0 | 0.00 | 0.00 | 0.00 | 56 | 1016.6 |
| 20260503053220 | 52 | 255 | 0.0 | 0.0 | 0.00 | 0.00 | 0.00 | 57 | 1016.6 |
| 20260503052719 | 52 | 255 | 0.0 | 0.0 | 0.00 | 0.00 | 0.00 | 57 | 1016.7 |
| 20260503052218 | 53 | 255 | 0.0 | 0.0 | 0.00 | 0.00 | 0.00 | 56 | 1016.8 |
| 20260503051717 | 53 | 255 | 0.0 | 0.0 | 0.00 | 0.00 | 0.00 | 56 | 1016.9 |
| 20260503051216 | 53 | 255 | 0.0 | 0.0 | 0.00 | 0.00 | 0.00 | 56 | 1017.0 |
| 20260503050715 | 52 | 255 | 0.0 | 0.0 | 0.00 | 0.00 | 0.00 | 56 | 1017.1 |
| 20260503050416 | 52 | 255 | 0.0 | 0.0 | 0.00 | 0.00 | 0.00 | 57 | 1017.2 |
| 20260503050214 | 52 | 255 | 0.0 | 0.0 | 0.00 | 0.00 | 0.00 | 57 | 1017.2 |
| 20260503045713 | 52 | 255 | 0.0 | 0.0 | 0.00 | 0.00 | 0.00 | 56 | 1017.2 |
| 20260503045412 | 52 | 255 | 0.0 | 0.0 | 0.00 | 0.00 | 0.00 | 57 | 1017.2 |
| 20260503045212 | 52 | 255 | 0.0 | 0.0 | 0.00 | 0.00 | 0.00 | 57 | 1017.2 |
| 20260503044711 | 52 | 255 | 0.0 | 0.0 | 0.00 | 0.00 | 0.00 | 58 | 1017.3 |
| 20260503044210 | 51 | 255 | 0.0 | 0.0 | 0.00 | 0.00 | 0.00 | 58 | 1017.5 |
| 20260503043709 | 51 | 255 | 0.0 | 0.0 | 0.00 | 0.00 | 0.00 | 59 | 1017.5 |
| 20260503043208 | 51 | 255 | 0.0 | 0.0 | 0.00 | 0.00 | 0.00 | 60 | 1017.4 |
| 20260503043011 | 51 | 255 | 0.0 | 0.0 | 0.00 | 0.00 | 0.00 | 60 | 1017.6 |
| 20260503042707 | 51 | 255 | 0.0 | 0.0 | 0.00 | 0.00 | 0.00 | 60 | 1017.4 |
| 20260503042206 | 51 | 255 | 0.0 | 0.0 | 0.00 | 0.00 | 0.00 | 60 | 1017.6 |
| 20260503041705 | 51 | 255 | 0.0 | 0.0 | 0.00 | 0.00 | 0.00 | 61 | 1017.6 |
| 20260503041204 | 51 | 255 | 0.0 | 0.0 | 0.00 | 0.00 | 0.00 | 60 | 1017.6 |
| 20260503040937 | 51 | 255 | 0.0 | 0.0 | 0.00 | 0.00 | 0.00 | 60 | 1017.7 |
| 20260503040703 | 51 | 255 | 0.0 | 0.0 | 0.00 | 0.00 | 0.00 | 60 | 1017.7 |
| 20260503040202 | 51 | 255 | 0.0 | 0.0 | 0.00 | 0.00 | 0.00 | 60 | 1017.6 |
| 20260503035701 | 51 | 255 | 0.0 | 0.0 | 0.00 | 0.00 | 0.00 | 60 | 1017.6 |
| 20260503035412 | 51 | 255 | 0.0 | 0.0 | 0.00 | 0.00 | 0.00 | 61 | 1017.7 |
| 20260503035200 | 51 | 255 | 0.0 | 0.0 | 0.00 | 0.00 | 0.00 | 61 | 1017.7 |
| 20260503034659 | 51 | 255 | 0.0 | 0.0 | 0.00 | 0.00 | 0.00 | 60 | 1017.7 |
| 20260503034158 | 51 | 255 | 0.0 | 0.0 | 0.00 | 0.00 | 0.00 | 61 | 1017.7 |
| 20260503033657 | 51 | 255 | 0.0 | 0.0 | 0.00 | 0.00 | 0.00 | 60 | 1017.8 |
| 20260503033156 | 51 | 255 | 0.0 | 0.0 | 0.00 | 0.00 | 0.00 | 60 | 1018.0 |
| 20260503032958 | 51 | 255 | 0.0 | 0.0 | 0.00 | 0.00 | 0.00 | 60 | 1018.1 |
| 20260503032655 | 51 | 255 | 0.0 | 0.0 | 0.00 | 0.00 | 0.00 | 60 | 1018.1 |
| 20260503032258 | 51 | 255 | 0.0 | 0.0 | 0.00 | 0.00 | 0.00 | 60 | 1018.0 |
| 20260503032154 | 51 | 255 | 0.0 | 0.0 | 0.00 | 0.00 | 0.00 | 60 | 1018.0 |
| 20260503031653 | 52 | 255 | 0.0 | 0.0 | 0.00 | 0.00 | 0.00 | 59 | 1018.1 |
| 20260503031152 | 52 | 255 | 0.0 | 0.0 | 0.00 | 0.00 | 0.00 | 60 | 1018.1 |
| 20260503031143 | 52 | 255 | 0.0 | 0.0 | 0.00 | 0.00 | 0.00 | 60 | 1018.0 |
| 20260503030651 | 52 | 255 | 0.0 | 0.0 | 0.00 | 0.00 | 0.00 | 60 | 1018.0 |
| 20260503030150 | 52 | 255 | 0.0 | 0.0 | 0.00 | 0.00 | 0.00 | 60 | 1018.0 |
| 20260503025649 | 52 | 255 | 0.0 | 0.0 | 0.00 | 0.00 | 0.00 | 60 | 1018.1 |
| 20260503025148 | 52 | 255 | 0.0 | 0.0 | 0.00 | 0.00 | 0.00 | 59 | 1018.1 |
| 20260503024647 | 52 | 255 | 0.0 | 0.0 | 0.00 | 0.00 | 0.00 | 60 | 1018.1 |
| 20260503024146 | 52 | 255 | 0.0 | 0.0 | 0.00 | 0.00 | 0.00 | 59 | 1018.1 |
| 20260503023645 | 52 | 255 | 0.0 | 0.0 | 0.00 | 0.00 | 0.00 | 59 | 1018.1 |
| 20260503023144 | 53 | 255 | 0.0 | 0.0 | 0.00 | 0.00 | 0.00 | 58 | 1018.2 |
| 20260503022644 | 53 | 255 | 0.0 | 0.0 | 0.00 | 0.00 | 0.00 | 57 | 1018.2 |
| 20260503022142 | 53 | 255 | 0.0 | 0.0 | 0.00 | 0.00 | 0.00 | 56 | 1018.2 |
| 20260503021641 | 53 | 255 | 0.0 | 0.0 | 0.00 | 0.00 | 0.00 | 57 | 1018.1 |
| 20260503021140 | 54 | 255 | 0.0 | 0.0 | 0.00 | 0.00 | 0.00 | 56 | 1018.2 |
| 20260503020639 | 54 | 255 | 0.0 | 0.0 | 0.00 | 0.00 | 0.00 | 55 | 1018.1 |
| 20260503020138 | 54 | 255 | 0.0 | 0.0 | 0.00 | 0.00 | 0.00 | 55 | 1018.2 |
| 20260503015637 | 55 | 255 | 0.0 | 0.0 | 0.00 | 0.00 | 0.00 | 54 | 1018.2 |
| 20260503015136 | 55 | 255 | 0.0 | 0.0 | 0.00 | 0.00 | 0.00 | 53 | 1018.1 |
| 20260503014635 | 55 | 255 | 0.0 | 0.0 | 0.00 | 0.00 | 0.00 | 53 | 1018.0 |
| 20260503014134 | 56 | 255 | 0.0 | 0.0 | 0.00 | 0.00 | 0.00 | 52 | 1018.0 |
| 20260503013633 | 56 | 255 | 0.0 | 0.0 | 0.00 | 0.00 | 0.00 | 51 | 1018.0 |
| 20260503013132 | 56 | 255 | 0.0 | 0.0 | 0.00 | 0.00 | 0.00 | 49 | 1017.8 |
| 20260503012631 | 57 | 255 | 0.0 | 0.0 | 0.00 | 0.00 | 0.00 | 48 | 1018.0 |
| 20260503012130 | 57 | 255 | 0.0 | 0.0 | 0.00 | 0.00 | 0.00 | 47 | 1018.0 |
| 20260503011629 | 58 | 255 | 0.0 | 0.0 | 0.00 | 0.00 | 0.00 | 46 | 1018.0 |
| 20260503011128 | 58 | 255 | 0.0 | 0.0 | 0.00 | 0.00 | 0.00 | 46 | 1018.0 |
| 20260503010627 | 59 | 255 | 0.0 | 0.0 | 0.00 | 0.00 | 0.00 | 45 | 1018.0 |
| 20260503010126 | 59 | 255 | 0.0 | 0.0 | 0.00 | 0.00 | 0.00 | 44 | 1018.0 |
| 20260503005625 | 59 | 255 | 0.0 | 0.0 | 0.00 | 0.00 | 0.00 | 43 | 1018.0 |
| 20260503005124 | 60 | 255 | 0.0 | 0.0 | 0.00 | 0.00 | 0.00 | 42 | 1018.1 |
| 20260503004623 | 60 | 255 | 0.0 | 0.0 | 0.00 | 0.00 | 0.00 | 42 | 1018.1 |
| 20260503004122 | 60 | 255 | 0.0 | 0.0 | 0.00 | 0.00 | 0.00 | 42 | 1018.1 |
| 20260503003621 | 61 | 255 | 0.0 | 0.0 | 0.00 | 0.00 | 0.00 | 41 | 1018.1 |
| 20260503003120 | 61 | 255 | 0.0 | 0.0 | 0.00 | 0.00 | 0.00 | 39 | 1018.1 |
| 20260503002619 | 61 | 255 | 0.0 | 0.0 | 0.00 | 0.00 | 0.00 | 39 | 1018.1 |
| 20260503002118 | 61 | 255 | 0.0 | 0.0 | 0.00 | 0.00 | 0.00 | 39 | 1018.2 |
| 20260503001617 | 61 | 255 | 0.0 | 0.0 | 0.00 | 0.00 | 0.00 | 40 | 1018.2 |
| 20260503001116 | 62 | 255 | 0.0 | 0.0 | 0.00 | 0.00 | 0.00 | 39 | 1018.2 |
| 20260503000615 | 62 | 255 | 0.0 | 0.0 | 0.00 | 0.00 | 0.00 | 38 | 1018.2 |
| 20260503000114 | 62 | 255 | 0.0 | 0.0 | 0.00 | 0.00 | 0.00 | 38 | 1018.2 |
| 20260502235614 | 62 | 255 | 0.0 | 0.0 | 0.00 | 0.00 | 0.00 | 40 | 1018.2 |
| 20260502235113 | 62 | 255 | 0.0 | 0.0 | 0.00 | 0.00 | 0.00 | 40 | 1018.3 |
| 20260502234612 | 61 | 255 | 0.0 | 0.0 | 0.00 | 0.00 | 0.00 | 40 | 1018.2 |
| 20260502234110 | 61 | 255 | 0.0 | 0.0 | 0.00 | 0.00 | 0.00 | 40 | 1018.3 |
| 20260502233609 | 61 | 255 | 0.0 | 0.0 | 0.00 | 0.00 | 0.00 | 40 | 1018.2 |
| 20260502233109 | 61 | 255 | 0.0 | 0.0 | 0.00 | 0.00 | 0.00 | 38 | 1018.3 |
| 20260502232607 | 61 | 255 | 0.0 | 0.0 | 0.00 | 0.00 | 0.00 | 40 | 1018.3 |
| 20260502232107 | 61 | 255 | 0.0 | 0.0 | 0.00 | 0.00 | 0.00 | 39 | 1018.3 |
| 20260502231605 | 61 | 255 | 0.0 | 0.0 | 0.00 | 0.00 | 0.00 | 40 | 1018.4 |
| 20260502231104 | 62 | 255 | 0.0 | 0.0 | 0.00 | 0.00 | 0.00 | 37 | 1018.5 |
| 20260502230604 | 62 | 255 | 0.0 | 0.0 | 0.00 | 0.00 | 0.00 | 38 | 1018.5 |
| 20260502225601 | 62 | 255 | 0.0 | 0.0 | 0.00 | 0.00 | 0.00 | 38 | 1018.5 |
| 20260502225100 | 63 | 255 | 0.0 | 0.0 | 0.00 | 0.00 | 0.00 | 35 | 1018.5 |
| 20260502224559 | 63 | 255 | 0.0 | 0.0 | 0.00 | 0.00 | 0.00 | 36 | 1018.5 |
| 20260502224058 | 63 | 255 | 0.0 | 0.0 | 0.00 | 0.00 | 0.00 | 35 | 1018.5 |
| 20260502223557 | 63 | 255 | 0.0 | 0.0 | 0.00 | 0.00 | 0.00 | 36 | 1018.5 |
| 20260502223056 | 63 | 255 | 0.0 | 0.0 | 0.00 | 0.00 | 0.00 | 39 | 1018.5 |
| 20260502222555 | 63 | 255 | 0.0 | 0.0 | 0.00 | 0.00 | 0.00 | 36 | 1018.6 |
| 20260502222054 | 63 | 255 | 0.0 | 0.0 | 0.00 | 0.00 | 0.00 | 38 | 1018.6 |
| 20260502221554 | 62 | 255 | 0.0 | 3.0 | 0.00 | 0.00 | 0.00 | 34 | 1018.7 |
| 20260502221053 | 62 | 279 | 0.0 | 2.0 | 0.00 | 0.00 | 0.00 | 1018.7 | |
| 20260502220551 | 62 | 341 | 0.0 | 0.0 | 0.00 | 0.00 | 0.00 | 39 | 1018.8 |
| 20260502220050 | 62 | 341 | 0.0 | 0.0 | 0.00 | 0.00 | 0.00 | 37 | 1018.8 |
| 20260502215549 | 62 | 341 | 0.0 | 7.0 | 0.00 | 0.00 | 0.00 | 39 | 1018.9 |
| 20260502215048 | 62 | 8 | 0.0 | 5.0 | 0.00 | 0.00 | 0.00 | 37 | 1019.0 |
| 20260502214548 | 62 | 307 | 0.0 | 0.0 | 0.00 | 0.00 | 0.00 | 35 | 1018.9 |
| 20260502214046 | 62 | 307 | 0.0 | 0.0 | 0.00 | 0.00 | 0.00 | 34 | 1019.0 |
| 20260502213545 | 61 | 307 | 0.0 | 5.0 | 0.00 | 0.00 | 0.00 | 39 | 1019.1 |
| 20260502213044 | 61 | 59 | 5.0 | 5.0 | 0.00 | 0.00 | 0.00 | 41 | 1019.1 |
| 20260502212544 | 61 | 341 | 0.0 | 0.0 | 0.00 | 0.00 | 0.00 | 39 | 1019.1 |
| 20260502212042 | 61 | 341 | 0.0 | 0.0 | 0.00 | 0.00 | 0.00 | 39 | 1019.1 |